Overview Statistics Trail Chart Weather Telemetry Raw packets
 

This is the latest recevied weather packets stored in our database for station/object KE6YLF. If no packets are shown the sender has not sent any weather packets the latest 10 day(s).

<< 87 88 89 90 91 92 93 >>
Time Temp. Humidity Pressure Rain* Wind** Luminosity Snow
1788046408 40.56° C 31% 1073 hPa 0 mm - - -
1788046106 40.56° C 29% 1073.1 hPa 0 mm - - -
1788045801 40.56° C 30% 1073.2 hPa 0 mm - - -
1788045497 40.56° C 29% 1073.2 hPa 0 mm - - -
1788045192 40.56° C 29% 1073.3 hPa 0 mm - - -
1788044887 41.11° C 29% 1073.2 hPa 0 mm - - -
1788044581 40° C 30% 1073.2 hPa 0 mm - - -
1788044280 41.11° C 30% 1073.5 hPa 0 mm - - -
1788043976 41.11° C 29% 1073.2 hPa 0 mm - - -
1788043671 41.11° C 29% 1073.5 hPa 0 mm - - -
1788043367 40.56° C 29% 1073.5 hPa 0 mm - - -
1788043066 41.11° C 28% 1073.5 hPa 0 mm - - -
1788042762 41.67° C 30% 1073.4 hPa 0 mm - - -
1788042460 41.67° C 30% 1073.5 hPa 0 mm - - -
1788042156 41.11° C 30% 1073.6 hPa 0 mm - - -
1788041851 40.56° C 30% 1073.8 hPa 0 mm - - -
1788041546 41.11° C 29% 1073.9 hPa 0 mm - - -
1788041241 40.56° C 30% 1074 hPa 0 mm - - -
1788040939 41.11° C 30% 1074 hPa 0 mm - - -
1788040638 41.67° C 28% 1074.2 hPa 0 mm - - -
1788040334 41.11° C 30% 1074.2 hPa 0 mm - - -
1788040033 41.11° C 29% 1074.3 hPa 0 mm - - -
1788039728 41.11° C 30% 1074.4 hPa 0 mm - - -
1788039423 41.11° C 30% 1074.5 hPa 0 mm - - -
1788039119 41.11° C 30% 1074.4 hPa 0 mm - - -

* Rain latest hour (hover to see other rain measurements)
** Current wind speed in m/s (hover to see current wind gust speed)